• In Lithuania
  • List of Countries
  • For 7 days
  • Water Temperature
  • Satellite Maps
  • Weather Map
  • Weather Widgets
  • user-avatar
    Login

    Hourly Weather Sydney

    Today, 19 December, Tuesday

    Time Temperature Precipitation Wind Pressure Humidity
    00:00 +22°C° 0 mm 0 mps 756 mmHg 89%
    01:00 +21°C° 0 mm 0 mps 756 mmHg 89%
    02:00 +21°C° 0 mm 0 mps 756 mmHg 89%
    03:00 +21°C° 0 mm 0 mps 756 mmHg 89%
    04:00 +23°C° 0 mm 1 mps 756 mmHg 90%
    05:00 +24°C° 0 mm 1 mps 756 mmHg 85%
    06:00 +26°C° 0 mm 1 mps 756 mmHg 80%
    07:00 +27°C° 0 mm 1 mps 756 mmHg 75%
    08:00 +30°C° 0 mm 2 mps 756 mmHg 63%
    09:00 +34°C° 0 mm 3 mps 755 mmHg 50%
    10:00 +37°C° 0 mm 4 mps 755 mmHg 38%
    11:00 +40°C° 0 mm 4 mps 755 mmHg 33%
    12:00 +42°C° 0 mm 5 mps 754 mmHg 28%
    13:00 +45°C° 0 mm 6 mps 753 mmHg 23%
    14:00 +44°C° 0 mm 6 mps 753 mmHg 24%
    15:00 +44°C° 0 mm 6 mps 752 mmHg 25%
    16:00 +43°C° 0 mm 7 mps 751 mmHg 25%
    17:00 +40°C° 0 mm 7 mps 751 mmHg 33%
    18:00 +36°C° 0 mm 7 mps 751 mmHg 40%
    19:00 +33°C° 0 mm 7 mps 751 mmHg 47%
    20:00 +33°C° 0 mm 7 mps 751 mmHg 46%
    21:00 +33°C° 0 mm 6 mps 752 mmHg 45%
    22:00 +33°C° 0 mm 5 mps 752 mmHg 44%
    23:00 +32°C° 0 mm 5 mps 752 mmHg 44%

    Tomorrow, 20 December, Wednesday

    Time Temperature Precipitation Wind Pressure Humidity
    00:00 +30°C° 0 mm 4 mps 752 mmHg 44%
    01:00 +30°C° 0 mm 3 mps 752 mmHg 43%
    02:00 +29°C° 0 mm 2 mps 752 mmHg 44%
    03:00 +29°C° 0 mm 2 mps 752 mmHg 44%
    04:00 +28°C° 0 mm 1 mps 752 mmHg 44%
    05:00 +30°C° 0 mm 1 mps 752 mmHg 42%
    06:00 +31°C° 0 mm 1 mps 753 mmHg 40%
    07:00 +34°C° 0 mm 2 mps 753 mmHg 37%
    08:00 +35°C° 0.1 mm 1 mps 753 mmHg 33%
    09:00 +37°C° 0.1 mm 1 mps 753 mmHg 29%
    10:00 +41°C° 0.1 mm 1 mps 754 mmHg 25%
    11:00 +41°C° 0 mm 2 mps 753 mmHg 23%
    12:00 +43°C° 0 mm 3 mps 753 mmHg 22%
    13:00 +44°C° 0 mm 4 mps 753 mmHg 21%
    14:00 +40°C° 0.5 mm 4 mps 753 mmHg 32%
    15:00 +35°C° 0.5 mm 4 mps 753 mmHg 42%
    16:00 +32°C° 0.5 mm 4 mps 753 mmHg 53%
    17:00 +30°C° 0.3 mm 4 mps 755 mmHg 58%
    18:00 +29°C° 0.3 mm 3 mps 756 mmHg 62%
    19:00 +28°C° 0.3 mm 3 mps 757 mmHg 66%
    20:00 +27°C° 0.2 mm 4 mps 758 mmHg 68%
    21:00 +27°C° 0.2 mm 4 mps 758 mmHg 70%
    22:00 +26°C° 0.2 mm 4 mps 759 mmHg 72%
    23:00 +25°C° 0.2 mm 5 mps 759 mmHg 75%

    Day after tomorrow, 21 December, Thursday

    Time Temperature Precipitation Wind Pressure Humidity
    00:00 +23°C° 0.2 mm 6 mps 759 mmHg 77%
    01:00 +22°C° 0.2 mm 6 mps 759 mmHg 80%
    02:00 +22°C° 0.4 mm 7 mps 760 mmHg 80%
    03:00 +21°C° 0.4 mm 7 mps 760 mmHg 81%
    04:00 +21°C° 0.4 mm 7 mps 760 mmHg 82%
    05:00 +21°C° 0.1 mm 7 mps 761 mmHg 81%
    06:00 +21°C° 0.1 mm 7 mps 762 mmHg 80%
    07:00 +21°C° 0.1 mm 6 mps 762 mmHg 80%
    08:00 +21°C° 0.1 mm 6 mps 763 mmHg 79%
    09:00 +21°C° 0.1 mm 6 mps 763 mmHg 79%
    10:00 +21°C° 0.1 mm 5 mps 763 mmHg 79%
    11:00 +22°C° 0 mm 5 mps 763 mmHg 72%
    12:00 +25°C° 0 mm 5 mps 762 mmHg 65%
    13:00 +26°C° 0 mm 5 mps 762 mmHg 58%
    14:00 +26°C° 0 mm 5 mps 762 mmHg 59%
    15:00 +25°C° 0 mm 5 mps 762 mmHg 60%
    16:00 +25°C° 0 mm 4 mps 761 mmHg 61%
    17:00 +23°C° 0 mm 4 mps 762 mmHg 65%
    18:00 +22°C° 0 mm 4 mps 762 mmHg 68%
    19:00 +22°C° 0 mm 3 mps 762 mmHg 71%
    20:00 +21°C° 0 mm 3 mps 763 mmHg 75%
    21:00 +20°C° 0 mm 2 mps 763 mmHg 78%
    22:00 +20°C° 0 mm 2 mps 763 mmHg 81%
    23:00 +20°C° 0 mm 2 mps 763 mmHg 83%

    22 December, Friday

    Time Temperature Precipitation Wind Pressure Humidity
    00:00 +19°C° 0 mm 2 mps 762 mmHg 85%
    01:00 +19°C° 0 mm 2 mps 762 mmHg 87%
    02:00 +19°C° 0 mm 2 mps 761 mmHg 88%
    03:00 +19°C° 0 mm 2 mps 761 mmHg 88%
    04:00 +18°C° 0 mm 3 mps 761 mmHg 89%
    05:00 +20°C° 0 mm 3 mps 762 mmHg 84%
    06:00 +21°C° 0 mm 3 mps 762 mmHg 78%
    07:00 +22°C° 0 mm 3 mps 762 mmHg 73%
    08:00 +24°C° 0 mm 3 mps 762 mmHg 69%
    09:00 +24°C° 0 mm 3 mps 762 mmHg 66%
    10:00 +25°C° 0 mm 3 mps 762 mmHg 63%
    11:00 +26°C° 0 mm 3 mps 761 mmHg 58%
    12:00 +28°C° 0 mm 3 mps 761 mmHg 54%
    13:00 +29°C° 0 mm 3 mps 760 mmHg 49%
    14:00 +29°C° 0 mm 3 mps 760 mmHg 50%
    15:00 +29°C° 0 mm 3 mps 759 mmHg 51%
    16:00 +29°C° 0 mm 4 mps 759 mmHg 51%
    17:00 +27°C° 0 mm 4 mps 759 mmHg 58%
    18:00 +26°C° 0 mm 4 mps 759 mmHg 64%
    19:00 +24°C° 0 mm 3 mps 760 mmHg 70%
    20:00 +22°C° 0 mm 3 mps 760 mmHg 75%
    21:00 +21°C° 0 mm 2 mps 760 mmHg 81%
    22:00 +20°C° 0 mm 2 mps 760 mmHg 86%
    23:00 +20°C° 0 mm 2 mps 760 mmHg 88%

    23 December, Saturday

    Time Temperature Precipitation Wind Pressure Humidity
    00:00 +21°C° 0 mm 1 mps 760 mmHg 90%
    01:00 +20°C° 0 mm 1 mps 759 mmHg 92%
    02:00 +20°C° 0 mm 1 mps 759 mmHg 93%
    03:00 +20°C° 0 mm 1 mps 759 mmHg 94%
    04:00 +20°C° 0 mm 1 mps 759 mmHg 95%
    05:00 +21°C° 0 mm 1 mps 759 mmHg 87%
    06:00 +23°C° 0 mm 1 mps 759 mmHg 80%
    07:00 +24°C° 0 mm 1 mps 759 mmHg 73%
    08:00 +27°C° 0 mm 2 mps 759 mmHg 62%
    09:00 +30°C° 0 mm 2 mps 758 mmHg 51%
    10:00 +34°C° 0 mm 3 mps 758 mmHg 39%
    11:00 +35°C° 0 mm 4 mps 757 mmHg 36%
    12:00 +36°C° 0 mm 4 mps 757 mmHg 33%
    13:00 +37°C° 0 mm 5 mps 756 mmHg 30%
    14:00 +36°C° 0 mm 5 mps 755 mmHg 33%
    15:00 +35°C° 0 mm 6 mps 755 mmHg 36%
    16:00 +34°C° 0 mm 6 mps 755 mmHg 39%
    17:00 +33°C° 0 mm 6 mps 755 mmHg 46%
    18:00 +30°C° 0 mm 5 mps 755 mmHg 53%
    19:00 +28°C° 0 mm 5 mps 755 mmHg 60%
    20:00 +27°C° 0 mm 5 mps 756 mmHg 65%
    21:00 +26°C° 0 mm 4 mps 756 mmHg 71%
    22:00 +25°C° 0 mm 3 mps 756 mmHg 76%
    23:00 +24°C° 0 mm 3 mps 756 mmHg 77%

    24 December, Sunday

    Time Temperature Precipitation Wind Pressure Humidity
    00:00 +24°C° 0 mm 3 mps 756 mmHg 77%
    01:00 +23°C° 0 mm 2 mps 755 mmHg 78%
    02:00 +23°C° 0 mm 2 mps 755 mmHg 75%
    03:00 +21°C° 0 mm 2 mps 755 mmHg 72%
    04:00 +22°C° 0 mm 1 mps 755 mmHg 68%
    05:00 +24°C° 0 mm 1 mps 755 mmHg 60%
    06:00 +26°C° 0 mm 1 mps 756 mmHg 51%
    07:00 +28°C° 0 mm 1 mps 756 mmHg 43%
    08:00 +32°C° 0 mm 1 mps 756 mmHg 36%
    09:00 +36°C° 0 mm 2 mps 755 mmHg 29%
    10:00 +39°C° 0 mm 2 mps 755 mmHg 22%
    11:00 +39°C° 0 mm 3 mps 754 mmHg 23%
    12:00 +39°C° 0 mm 3 mps 754 mmHg 23%
    13:00 +40°C° 0 mm 4 mps 753 mmHg 24%
    14:00 +37°C° 0.2 mm 5 mps 753 mmHg 31%
    15:00 +35°C° 0.2 mm 6 mps 753 mmHg 38%
    16:00 +34°C° 0.2 mm 7 mps 752 mmHg 46%
    17:00 +32°C° 0.6 mm 7 mps 753 mmHg 53%
    18:00 +29°C° 0.6 mm 7 mps 754 mmHg 60%
    19:00 +27°C° 0.6 mm 6 mps 755 mmHg 67%
    20:00 +26°C° 0.3 mm 5 mps 755 mmHg 73%
    21:00 +25°C° 0.3 mm 4 mps 756 mmHg 79%
    22:00 +24°C° 0.3 mm 2 mps 756 mmHg 84%
    23:00 +24°C° 0 mm 2 mps 756 mmHg 87%
    Show more